Left ArrowRight Arrow

Hourly Observations for February 2, 2016

Temp ( °F °C ) Dew Point ( °F °C ) Humidity (%) Winds ( mph kmh ) Pressure ( in mb ) Visibility ( mi km ) Precip ( " mm )
12:21 am 00:21 Cloudy with Light Snow 26 -3.3 23 -5 88 88 SE 3 6 30.21 1023 6 10 0.00 0.03
12:38 am 00:38 Cloudy with Light Snow 25 -4 21 -6 86 86 Calm 30.24 1024 3 4 0.00 0.00
12:50 am 00:50 Cloudy with Light Snow 25 -4 21 -6 86 86 Calm 30.24 1024 3 5 0.00 0.00
12:53 am 00:53 Cloudy with Light Snow 25 -3.9 22 -5.6 88 88 Calm 30.17 1022 4 6 0.00 0.03
1:53 am 01:53 Cloudy with Light Snow 23 -5 21 -6.1 92 92 Calm 30.18 1022 5 8 0.00 0.03
2:53 am 02:53 Cloudy with Light Snow 24 -4.4 22 -5.6 91 91 ESE 5 7 30.18 1022 7 11 0.00 0.03
3:53 am 03:53 Cloudy 24 -4.4 20 -6.7 84 84 E 5 7 30.18 1022 10 16 0.00 0.03
4:37 am 04:37 Cloudy with Mist and Fog 23 -5 21 -6.1 92 92 SSW 3 6 30.24 1024 3 5 0.00 0.00
4:53 am 04:53 Cloudy with Mist and Fog 22 -5.6 21 -6.1 96 96 Calm 30.19 1022 4 6 0.00 0.00
5:53 am 05:53 Cloudy with Light Snow 24 -4.4 22 -5.6 91 91 ESE 3 6 30.19 1022 6 10 0.00 0.03
6:21 am 06:21 Cloudy with Light Snow 24 -4.4 21 -6.1 88 88 ESE 6 9 30.27 1025 2 3 0.00 0.03
6:34 am 06:34 Cloudy with Light Snow 25 -4 21 -6 86 86 ESE 3 6 30.27 1025 3 4 0.00 0.00
6:43 am 06:43 Cloudy with Light Snow 24 -4.4 21 -6.1 88 88 ESE 7 11 30.27 1025 3 5 0.01 0.25
6:53 am 06:53 Cloudy 24 -4.4 21 -6.1 88 88 ESE 6 9 30.20 1023 7 11 0.01 0.25
7:11 am 07:11 Cloudy 24 -4.4 21 -6.1 88 88 ESE 8 13 30.27 1025 7 11 0.00 0.03
7:53 am 07:53 Cloudy 23 -5 20 -6.7 88 88 SSE 7 11 30.21 1023 10 16 0.00 0.03
8:31 am 08:31 Cloudy with Light Snow 24 -4.4 20 -6.7 84 84 SE 10 17 30.27 1025 2 3 0.00 0.03
8:46 am 08:46 Cloudy with Light Snow 25 -4 19 -7 80 80 SSE 10 17 30.27 1025 4 6 0.00 0.00
8:53 am 08:53 Cloudy with Mist and Fog 24 -4.4 20 -6.7 84 84 SSE 8 13 30.22 1023 6 10 0.00 0.03
9:23 am 09:23 Cloudy with Light Snow 24 -4.4 20 -6.7 84 84 ESE 8 13 30.27 1025 2 3 0.00 0.03
9:32 am 09:32 Cloudy with Light Snow 25 -4 19 -7 80 80 E 6 9 30.27 1025 3 5 0.00 0.00
9:53 am 09:53 Cloudy with Haze 25 -3.9 20 -6.7 81 81 ESE 8 13 30.22 1023 3 5 0.00 0.03
10:20 am 10:20 Cloudy 25 -4 19 -7 80 80 ESE 7 11 30.27 1025 10 16 0.00 0.00
10:29 am 10:29 Cloudy with Light Snow 25 -3.9 19 -7.2 78 78 ESE 7 11 30.27 1025 4 6 0.00 0.03
10:39 am 10:39 Cloudy with Light Snow 24 -4.4 20 -6.7 84 84 ESE 6 9 30.27 1025 2 3 0.00 0.03
10:51 am 10:51 Cloudy with Light Snow 25 -4 19 -7 80 80 SE 7 11 30.27 1025 5 8 0.00 0.03
10:53 am 10:53 Cloudy with Light Snow 24 -4.4 20 -6.7 84 84 SE 8 13 30.24 1024 5 8 0.00 0.03
11:05 am 11:05 Cloudy with Light Snow 25 -3.9 19 -7.2 78 78 SE 7 11 30.27 1025 4 6 0.00 0.03
11:39 am 11:39 Cloudy with Light Snow 24 -4.4 19 -7.2 81 81 ESE 7 11 30.27 1025 2 3 0.00 0.03
11:44 am 11:44 Cloudy with Light Snow 25 -4 19 -7 80 80 ESE 8 13 30.27 1025 2 3 0.00 0.00
11:53 am 11:53 Cloudy with Light Snow 24 -4.4 19 -7.2 81 81 SSE 7 11 30.23 1024 2 3 0.00 0.03
12:01 pm 12:01 Cloudy with Light Snow 24 -4.4 19 -7.2 81 81 SE 5 7 30.27 1025 2 3 0.00 0.03
12:09 pm 12:09 Cloudy with Light Snow 24 -4.4 20 -6.7 84 84 ESE 3 6 30.27 1025 2 2 0.00 0.03
12:17 pm 12:17 Cloudy with Light Snow 25 -3.9 20 -6.7 81 81 ESE 6 9 30.27 1025 3 5 0.00 0.03
12:24 pm 12:24 Cloudy with Light Snow 25 -4 19 -7 80 80 E 6 9 30.27 1025 4 6 0.00 0.00
12:53 pm 12:53 Cloudy 25 -3.9 20 -6.7 81 81 ESE 5 7 30.22 1024 10 16 0.00 0.03
1:53 pm 13:53 Cloudy 27 -2.8 20 -6.7 75 75 ESE 3 6 30.21 1023 10 16 0.00 0.00
2:53 pm 14:53 Cloudy 29 -1.7 21 -6.1 72 72 ESE 6 9 30.20 1023 10 16 0.00 0.00
3:53 pm 15:53 Cloudy with Light Snow 28 -2.2 22 -5.6 78 78 Calm 30.22 1024 7 11 0.00 0.03
4:05 pm 16:05 Cloudy with Light Snow 28 -2.2 22 -5.6 78 78 Calm 30.24 1024 2 3 0.00 0.03
4:07 pm 16:07 Cloudy with Light Snow 28 -2.2 22 -5.6 78 78 Calm 30.24 1024 1 1 0.00 0.03
4:12 pm 16:12 Cloudy with Heavy Snow 27 -3 21 -6 80 80 Calm 30.27 1025 0 0 0.00 0.00
4:32 pm 16:32 Mostly Cloudy with Snow 27 -3 23 -5 86 86 W 5 7 30.27 1025 1 1 0.00 0.00
4:40 pm 16:40 Mostly Cloudy with Snow 27 -3 23 -5 86 86 Calm 30.27 1025 0 0 0.00 0.00
4:53 pm 16:53 Cloudy with Light Snow 25 -3.9 22 -5.6 88 88 WNW 3 6 30.25 1024 3 5 0.03 0.76
4:59 pm 16:59 Cloudy with Light Snow 25 -3.9 22 -5.6 88 88 Calm 30.27 1025 3 5 0.00 0.03
5:05 pm 17:05 Mostly Cloudy with Mist and Fog 25 -3.9 22 -5.6 88 88 Calm 30.27 1025 3 5 0.00 0.03
5:38 pm 17:38 Cloudy with Light Snow 25 -4 23 -5 93 93 Calm 30.27 1025 3 4 0.00 0.00
5:53 pm 17:53 Cloudy with Mist and Fog 24 -4.4 22 -5.6 91 91 Calm 30.25 1025 5 8 0.00 0.03
6:53 pm 18:53 Mostly Cloudy 22 -5.6 20 -6.7 92 92 NE 3 6 30.26 1025 10 16 0.00 0.00
7:53 pm 19:53 Cloudy with Light Snow 23 -5 20 -6.7 88 88 NNW 5 7 30.27 1025 4 6 0.00 0.03
7:57 pm 19:57 Cloudy with Light Snow 23 -5 20 -6.7 88 88 NW 5 7 30.33 1027 3 4 0.00 0.03
8:16 pm 20:16 Cloudy with Light Snow 22 -5.6 20 -6.7 92 92 Calm 30.33 1027 5 8 0.00 0.03
8:53 pm 20:53 Cloudy 21 -6.1 19 -7.2 92 92 VRB 3 6 30.27 1025 8 13 0.00 0.03
9:10 pm 21:10 Mostly Cloudy with Mist and Fog 19 -7 18 -8 93 93 SE 5 7 30.36 1028 4 6 0.00 0.00
9:21 pm 21:21 Mostly Cloudy 20 -6.7 18 -7.8 92 92 E 5 7 30.36 1028 7 11 0.00 0.00
9:53 pm 21:53 Cloudy 23 -5 21 -6.1 92 92 ENE 3 6 30.28 1025 10 16 0.00 0.00
10:05 pm 22:05 Cloudy 23 -5 21 -6.1 92 92 Calm 30.33 1027 9 14 0.00 0.00
10:53 pm 22:53 Cloudy 21 -6.1 19 -7.2 92 92 NW 6 9 30.29 1026 8 13 0.00 0.00
11:53 pm 23:53 Cloudy with Mist and Fog 21 -6.1 19 -7.2 92 92 W 6 9 30.31 1026 6 10 0.00 0.00

Powered by Vaisala Xweather